Погода в Панфилове

Погода в Панфилове : погода сейчас, прогноз погоды и архив. Всё, что Вы хотите узнать о погоде в Панфилове!

Хотите узнать прогноз погоды в Панфилове? Тогда Вам сюда: Погода в Панфилове

Поиск расширенной информации на нашем сайте:

Другие новости

Новости СМИ2

Главная страница сайта

Новости сайта

03.07.2017

Напоминаем, что на нашем специализированном сайте Метеоцентр.Азия вы можете получить высокодетализированные автоматические прогнозы погоды по пунктам России, СНГ и мира в авиационном формате (включающие направление и скорость ветра, видимость, явления погоды, количество и форму облачности, нижнюю и верхнюю границу облачности).


Погода в Панфилове - сегодня

Время (UTC), дата Ветер
(°,м/с) 
Видим.   Явления Облачность Т
(°С)
Тd
(°С)
f(%) Тe
(°С)
Pmin
(гПа)
dP
(гПа)
Po
(мм)
O2
(г/м3)
Тmin Tmax R s Состояние
почвы
12 21.04.18 тихо ()   20000 м    4/4 600 м кучево-дожд. 
[Cb cap]
+21 +0.2 25 +21  1012.4  -0.4  705  264           
15 21.04.18 060 (СВ) н/о    6/3 600 м средняя, верхняя 
[Sc diur, vesp|Ac lent|Cs]
+16 +1.5 37 +17  1015.3  1.6  706  269    +22.2       
18 21.04.18 тихо ()   н/о    4/0 средняя 
[Ac lent]
+13.2 +1.5 45 +13  1016.3  0.2  707  271    +22.2       
21 21.04.18 350 (С) н/о    4/0 средняя 
[Ac lent]
+11.4 +0.6 47 +12  1016.8  707  273           
00 22.04.18 010 (С) 20000 м    3/0 средняя 
[Ac lent]
+10.2 -0.5 47 +11  1017.3  0.2  707  274           
06 22.04.18 120 (ЮВ) 20000 м    ясно 
+23.2 +0.9 23 +23  1014.1  -0.5  707  262  +10.2         
09 22.04.18 170 (Ю) 20000 м    ясно 
+25.2 +0.7 20 +25  1011.4  -2  705  260           
12 22.04.18 110 (В) 20000 м    ясно 
+25.4 +1.1 20 +25  1010.7  -0.6  705  260           
15 22.04.18 тихо ()   н/о    ясно 
+18 +4 39 +18  1013.8  1.2  706  266    +25.9       
18 22.04.18 340 (С) н/о    ясно 
+16 +3.3 43 +17  1015  0.6  706  268    +25.9       
21 22.04.18 тихо ()   н/о    ясно 
+12.5 +4.1 57 +13  1015.8  -0.1  706  271           
00 23.04.18 340 (С) 20000 м    4/0 средняя, верхняя 
[Ac lent|Ci fib]
+9.5 +1.9 59 +11  1017.1  0.4  706  275           
03 23.04.18 090 (В) 20000 м    3/0 средняя 
[Ac lent]
+21 +2.2 29 +21  1014.9  0.8  707  264           
06 23.04.18 140 (ЮВ) 20000 м    8/0 средняя, верхняя 
[Ac lent|Cs]
+26 +1.6 20 +26  1012.6  -1  706  260  +9         
09 23.04.18 180 (Ю) 20000 м    9/4 600 м кучево-дожд., средняя, верхняя 
[Cb cap|Ac lent|Cs]
+28.4 +2.3 19 +28  1010.1  -1.8  705  257           
12 23.04.18 130 (ЮВ) 20000 м    6/3 600 м кучево-дожд., средняя, верхняя 
[Cb cap|Ac lent|Ci fib]
+28.4 +2.3 19 +28  1009.6  -0.4  705  257           
15 23.04.18 030 (СВ) н/о    9/3 600 м средняя, верхняя 
[Sc|Ac lent|Ci fib]
+20.2 +4.3 35 +20  1012.6  0.9  705  264    +28.9       
18 23.04.18 010 (С) н/о    9/3 600 м средняя, верхняя 
[Sc|Ac lent|Cs]
+19.4 +3 34 +20  1013.4  0.5  706  265    +28.9       
21 23.04.18 тихо ()   н/о    4/0 средняя 
[Ac lent]
+14.4 +3.8 49 +14  1014.6  706  269           
00 24.04.18 020 (С) 20000 м    9/3 600 м средняя, верхняя 
[Sc|Ac lent|Cs]
+14 +3.2 48 +15  1014.7  -0.1  706  270           
03 24.04.18 тихо ()   20000 м    6/0 средняя, верхняя 
[Ac lent|Cs]
+22.2 +5.5 34 +22  1012  -0.4  705  262           
06 24.04.18 130 (ЮВ) 20000 м    9/0 средняя, верхняя 
[Ac lent|Cs]
+28.6 +2.8 19 +29  1008.1  -2.3  704  256  +13.1         
09 24.04.18 110 (В) 20000 м    9/3 1000 м средняя, верхняя 
[Sc|Ac lent|Cs]
+30.1 +2.1 17 +30  1005  -2.6  702  254           
12 24.04.18 080 (В) 20000 м    9/0 средняя, верхняя 
[Ac lent|Cs]
+30.1 +3.6 19 +30  1003.4  -1.4  701  254           
15 24.04.18 040 (СВ) н/о    8/4 600 м средняя, верхняя 
[Sc|Ac lent|Cs]
+23 +5.2 31 +23  1005.1  701  259    +30.8       
Время (UTC), дата Ветер
(°,м/с) 
Видим.   Явления Облачность Т
(°С)
Тd
(°С)
f(%) Тe
(°С)
Pmin
(гПа)
dP
(гПа)
Po
(мм)
O2
(г/м3)
Тmin Tmax R s Состояние
почвы

Для получения пояснительной информации подведите курсор к названию столбца.

ПОГОДА в Панфилове - архив

Всё, что Вы хотите узнать о погоде в Панфилове - удобно и подробно!

Выберите нужную дату (начиная с 1 января 2015* года) и нажмите кнопку "Найти".
Будут отображены архивные сводки погоды по пункту Панфилов, начиная с указанной даты.


Отображать данные в формате CSV (для использования в таблицах Excel)


Внимание! Наш архив погоды предназначен исключительно для личного некоммерческого использования в познавательных целях. Если Вам необходимы официальные справки о состоянии погоды (для производственных, юридических, коммерческих и т.п. целей), обращайтесь в органы Росгидромета.

*Примечание: данная дата относится к архиву по метеостанциям СССР (Россия, СНГ, Балтия).
Архив по метеостанциям Зарубежной Европы и Азии (кроме Китая) хранится 10 дней, по другим регионам земного шара (Китай, Африка, Америка, Австралия, Океания) - 1 день.

Панфилов - район местоположения метеостанции


Название, широта, долгота, высота метеостанции:
Панфилов 44.2°ш. 80.1°д. 645 м над ур. моря [Казахстан]

Дополнительная информация

В oтличие oт бoльшинства пoгoдных сайтoв мы публикуем пoдрoбную метеoинфoрмацию в детальнoм прoфессиoнальнoм фoрмате.

Характеристики температуры и влажнoсти вoздуха измеряются на высoте 2 м в тени вдали oт зданий и деревьев.
Скoрoсть ветра измеряется на высoте 10 м (на урoвне рoста челoвека скoрoсть ветра ниже в 1.5-2 раза). Если метеoстанция нахoдится в гoрoде или в лесу, тo скoрoсть ветра занижена на 2-4 м/с пo сравнению с oткрытым местoм. Скoрoсть ветра над акватoриями крупных рек и oзёр, а также на вершинах хoлмoв на 2-5 м/с выше, чем в oбычных услoвиях.
Атмoсфернoе давление в разных тoчках местнoсти мoжет значительнo oтличаться oт давления на метеoстанции, в зависимoсти oт услoвий рельефа (при пoдъёме на 10 м давление пoнижается примернo на 1 мм рт.ст.).